sat.trackr.live / text

‹ back to catalog

STARLINK-5736

NORAD 55584 · 2023-020R

PAYLOAD ACTIVE UNKNOWN

§ Identity

Operator
Country
US
Launch date
2023-02-12
Launch site
AFETR
Launch vehicle
Mass (kg)
RCS (m²)

Purposes: comms

External: N2YO · Heavens-Above · Gunter

§ Orbital elements

Epoch: 2026-09-20T12:20:47.637600Z

Period
94.27 min
Inclination
43.0018°
Eccentricity
0.0001194
Mean motion
15.27577608 rev/d
Perigee alt
482.2 km
Apogee alt
483.9 km
Semi-major
6,861.2 km
B*
1.3364e-5
RAAN
345.3686°
Arg perigee
268.4480°
Mean anomaly
91.6235°
Rev number
19,870

§ Raw data

STARLINK-57361 55584U 23020R   26263.51444025  .00000106  00000+0  13364-4 0  99952 55584  43.0018 345.3686 0001194 268.4480  91.6235 15.27577608198706

JSON: /api/v1/satellites/55584 · /tle

For live sub-satellite position, see the globe view (requires WebGL).

§ Visibility from observer

Set your observer location to see the next 7 days of passes ≥ 10°. The values pass through the URL so the page stays shareable.

No JS? Fill the form by hand. The geolocation button needs JavaScript.